Погода в Великополовецком

Украина / Киевская область     49°52′08″N   29°56′27″E
темп.,
°C
ветер,
м/с
пор.,
м/с
влажн.,
%
обл.,
%
осадки,
мм/ч
давл.,
гПа
погр.,
м
20 января, чт
чт2023:00−5зюз3696100 0.0 1020116
02:00−3ююз3792100 0.0 1018181
05:00−4ююз4996100 0.0 1015223
08:00−4ююз51287100 0.0 1014283
11:00−1юз51269100 0.0 1012435
14:00+1ююз5106832 0.0 1009457
17:00−1юз4985100 0.0 1008242
20:00−1юз51297100 0.5 1007535
21 января, пт
пт2123:00−1зюз61291100 0.3 1006598
02:00−2з71280100 0.3 1006725
05:00−4зюз71381100 0.0 1006741
08:00−3з91583100 0.2 10061023
11:00−2з101575100 0.1 10081161
14:00−2з101574100 0.1 10071100
17:00−3з9158199 0.0 1008992
20:00−4з8158091 0.0 1008825
22 января, сб
сб2223:00−4зюз81586100 0.0 1008800
02:00−3з71390100 0.4 1008752
05:00−3з61187100 0.1 1008748
08:00−4з6128894 0.1 1009703
11:00−3з6108299 0.1 1010752
14:00−2з587983 0.1 1010855
17:00−3сз3791100 0.3 1012354
20:00−5сз489198 0.4 1014331
23 января, вс
вс2323:00−6сз479475 0.1 1016336
02:00−6сз369495 0.1 1017347
05:00−6ссз359396 0.1 1018302
08:00−7с369468 0.2 1020302
11:00−5ссв4584100 0.1 1023610
14:00−5ссв4577100 0.1 1024809
17:00−5ссв5782100 0.1 1026792
20:00−6ссв5992100 0.1 1028512
24 января, пн
пн2423:00−6ссв5987100 0.1 1028669
02:00−7с6119187 0.1 1028471
05:00−8с71391100 0.0 1028502
08:00−8с71587100 0.0 1028483
11:00−7с71479100 0.0 1028575
14:00−6с71084100 0.1 1027629
17:00−7с51094100 0.3 1028547
20:00−7с51191100 0.5 1029458